Time,TemperatureF,DewpointF,PressureIn,WindDirection,WindDirectionDegrees,WindSpeedMPH,WindSpeedGustMPH,Humidity,HourlyPrecipIn,Conditions,Clouds,dailyrainin,SoftwareType,DateUTC
2013-04-01 00:00:00,50.1,29.8,30.14,North,3,0.0,0.0,46,0.00,,,0.00,Weather View 32 v70,2013-04-01 06:00:00,
2013-04-01 00:10:00,49.6,29.9,30.15,North,3,0.0,0.0,47,0.00,,,0.00,Weather View 32 v70,2013-04-01 06:10:00,
2013-04-01 00:20:00,48.7,29.9,30.16,North,3,0.0,0.0,48,0.00,,,0.00,Weather View 32 v70,2013-04-01 06:20:00,
2013-04-01 00:25:00,48.5,30.0,30.16,North,3,0.0,0.0,49,0.00,,,0.00,Weather View 32 v70,2013-04-01 06:25:00,
2013-04-01 00:35:00,47.7,30.0,30.16,North,3,0.0,0.0,50,0.00,,,0.00,Weather View 32 v70,2013-04-01 06:35:00,
2013-04-01 00:40:00,47.2,29.9,30.17,North,3,0.0,0.0,51,0.00,,,0.00,Weather View 32 v70,2013-04-01 06:40:00,
2013-04-01 00:45:00,46.9,30.1,30.17,North,3,0.0,0.0,52,0.00,,,0.00,Weather View 32 v70,2013-04-01 06:45:00,
2013-04-01 00:55:00,45.9,30.3,30.17,North,3,0.0,0.0,54,0.00,,,0.00,Weather View 32 v70,2013-04-01 06:55:00,
2013-04-01 01:05:00,45.1,30.4,30.17,North,3,0.0,0.0,56,0.00,,,0.00,Weather View 32 v70,2013-04-01 07:05:00,
2013-04-01 01:10:00,44.8,30.4,30.17,North,3,0.0,0.0,57,0.00,,,0.00,Weather View 32 v70,2013-04-01 07:10:00,
2013-04-01 01:15:00,44.4,30.4,30.16,North,3,0.0,0.0,58,0.00,,,0.00,Weather View 32 v70,2013-04-01 07:15:00,
2013-04-01 01:20:00,44.1,30.4,30.16,North,3,0.0,0.0,58,0.00,,,0.00,Weather View 32 v70,2013-04-01 07:20:00,
2013-04-01 01:25:00,43.8,30.4,30.16,North,3,0.0,0.0,59,0.00,,,0.00,Weather View 32 v70,2013-04-01 07:25:00,
2013-04-01 01:35:00,43.4,30.4,30.17,North,3,0.0,0.0,60,0.00,,,0.00,Weather View 32 v70,2013-04-01 07:35:00,
2013-04-01 01:45:00,43.1,30.3,30.17,North,3,0.0,0.0,61,0.00,,,0.00,Weather View 32 v70,2013-04-01 07:45:00,
2013-04-01 01:50:00,42.9,30.3,30.17,North,3,0.0,0.0,61,0.00,,,0.00,Weather View 32 v70,2013-04-01 07:50:00,
2013-04-01 01:55:00,42.7,30.3,30.18,North,3,0.0,0.0,61,0.00,,,0.00,Weather View 32 v70,2013-04-01 07:55:00,
2013-04-01 02:00:00,42.5,30.2,30.18,North,3,0.0,0.0,62,0.00,,,0.00,Weather View 32 v70,2013-04-01 08:00:00,
2013-04-01 02:05:00,42.4,30.2,30.17,North,3,0.0,0.0,62,0.00,,,0.00,Weather View 32 v70,2013-04-01 08:05:00,
2013-04-01 02:15:00,42.0,30.2,30.16,North,3,0.0,0.0,63,0.00,,,0.00,Weather View 32 v70,2013-04-01 08:15:00,
2013-04-01 02:20:00,41.8,30.1,30.17,North,3,0.0,0.0,63,0.00,,,0.00,Weather View 32 v70,2013-04-01 08:20:00,
2013-04-01 02:25:00,41.7,30.2,30.17,North,3,0.0,0.0,64,0.00,,,0.00,Weather View 32 v70,2013-04-01 08:25:00,
2013-04-01 02:30:00,41.5,30.2,30.17,North,3,0.0,0.0,64,0.00,,,0.00,Weather View 32 v70,2013-04-01 08:30:00,
2013-04-01 02:40:00,41.2,30.2,30.16,North,3,0.0,0.0,65,0.00,,,0.00,Weather View 32 v70,2013-04-01 08:40:00,
2013-04-01 02:45:00,41.1,30.1,30.16,North,3,0.0,0.0,65,0.00,,,0.00,Weather View 32 v70,2013-04-01 08:45:00,
2013-04-01 02:50:00,41.0,30.2,30.16,North,3,0.0,0.0,65,0.00,,,0.00,Weather View 32 v70,2013-04-01 08:50:00,
2013-04-01 02:55:00,40.9,30.1,30.16,North,3,0.0,0.0,65,0.00,,,0.00,Weather View 32 v70,2013-04-01 08:55:00,
2013-04-01 03:05:00,40.5,30.1,30.16,North,3,0.0,0.0,66,0.00,,,0.00,Weather View 32 v70,2013-04-01 09:05:00,
2013-04-01 03:10:00,40.4,30.0,30.16,North,3,0.0,0.0,66,0.00,,,0.00,Weather View 32 v70,2013-04-01 09:10:00,
2013-04-01 03:15:00,40.2,30.0,30.16,North,3,0.0,0.0,67,0.00,,,0.00,Weather View 32 v70,2013-04-01 09:15:00,
2013-04-01 03:20:00,40.1,30.0,30.16,North,3,0.0,0.0,67,0.00,,,0.00,Weather View 32 v70,2013-04-01 09:20:00,
2013-04-01 03:25:00,39.8,30.0,30.15,North,3,0.0,0.0,68,0.00,,,0.00,Weather View 32 v70,2013-04-01 09:25:00,
2013-04-01 03:30:00,39.6,30.0,30.15,North,3,0.0,0.0,68,0.00,,,0.00,Weather View 32 v70,2013-04-01 09:30:00,
2013-04-01 03:40:00,39.2,30.2,30.15,North,3,0.0,0.0,70,0.00,,,0.00,Weather View 32 v70,2013-04-01 09:40:00,
2013-04-01 03:45:00,39.0,30.2,30.15,North,3,0.0,0.0,71,0.00,,,0.00,Weather View 32 v70,2013-04-01 09:45:00,
2013-04-01 03:50:00,38.9,30.3,30.15,North,3,0.0,0.0,71,0.00,,,0.00,Weather View 32 v70,2013-04-01 09:50:00,
2013-04-01 03:55:00,38.7,30.3,30.14,North,3,0.0,0.0,72,0.00,,,0.00,Weather View 32 v70,2013-04-01 09:55:00,
2013-04-01 04:00:00,38.6,30.4,30.14,North,3,0.0,0.0,72,0.00,,,0.00,Weather View 32 v70,2013-04-01 10:00:00,
2013-04-01 04:10:00,38.3,30.7,30.14,North,3,0.0,0.0,74,0.00,,,0.00,Weather View 32 v70,2013-04-01 10:10:00,
2013-04-01 04:15:00,38.2,30.7,30.14,North,3,0.0,0.0,74,0.00,,,0.00,Weather View 32 v70,2013-04-01 10:15:00,
2013-04-01 04:25:00,38.0,30.8,30.14,North,3,0.0,0.0,75,0.00,,,0.00,Weather View 32 v70,2013-04-01 10:25:00,
2013-04-01 04:30:00,37.9,30.9,30.14,North,3,0.0,0.0,76,0.00,,,0.00,Weather View 32 v70,2013-04-01 10:30:00,
2013-04-01 04:40:00,37.9,31.2,30.14,North,3,0.0,0.0,77,0.00,,,0.00,Weather View 32 v70,2013-04-01 10:40:00,
2013-04-01 04:50:00,37.6,31.0,30.13,North,3,0.0,0.0,77,0.00,,,0.00,Weather View 32 v70,2013-04-01 10:50:00,
2013-04-01 04:55:00,37.4,31.0,30.13,North,3,0.0,0.0,77,0.00,,,0.00,Weather View 32 v70,2013-04-01 10:55:00,
2013-04-01 05:00:00,37.3,30.9,30.13,North,3,0.0,0.0,77,0.00,,,0.00,Weather View 32 v70,2013-04-01 11:00:00,
2013-04-01 05:05:00,37.2,30.8,30.13,North,3,0.0,0.0,78,0.00,,,0.00,Weather View 32 v70,2013-04-01 11:05:00,
2013-04-01 05:15:00,36.9,30.8,30.13,North,3,0.0,0.0,79,0.00,,,0.00,Weather View 32 v70,2013-04-01 11:15:00,
2013-04-01 05:20:00,36.7,30.8,30.13,North,3,0.0,0.0,79,0.00,,,0.00,Weather View 32 v70,2013-04-01 11:20:00,
2013-04-01 05:25:00,36.7,31.0,30.14,North,3,0.0,0.0,80,0.00,,,0.00,Weather View 32 v70,2013-04-01 11:25:00,
2013-04-01 05:30:00,36.7,31.0,30.14,North,3,0.0,0.0,80,0.00,,,0.00,Weather View 32 v70,2013-04-01 11:30:00,
2013-04-01 05:35:00,36.5,31.0,30.14,North,3,0.0,0.0,80,0.00,,,0.00,Weather View 32 v70,2013-04-01 11:35:00,
2013-04-01 05:45:00,36.1,30.9,30.13,North,3,0.0,0.0,81,0.00,,,0.00,Weather View 32 v70,2013-04-01 11:45:00,
2013-04-01 05:50:00,35.8,31.0,30.13,North,3,0.0,0.0,82,0.00,,,0.00,Weather View 32 v70,2013-04-01 11:50:00,
2013-04-01 05:55:00,35.6,30.9,30.14,North,3,0.0,0.0,83,0.00,,,0.00,Weather View 32 v70,2013-04-01 11:55:00,
2013-04-01 06:00:00,35.3,30.9,30.14,North,3,0.0,0.0,84,0.00,,,0.00,Weather View 32 v70,2013-04-01 12:00:00,
2013-04-01 06:10:00,34.9,30.9,30.14,North,3,0.0,0.0,85,0.00,,,0.00,Weather View 32 v70,2013-04-01 12:10:00,
2013-04-01 06:20:00,34.7,30.9,30.13,North,3,0.0,0.0,86,0.00,,,0.00,Weather View 32 v70,2013-04-01 12:20:00,
2013-04-01 06:30:00,34.4,30.7,30.14,North,3,0.0,0.0,86,0.00,,,0.00,Weather View 32 v70,2013-04-01 12:30:00,
2013-04-01 06:40:00,34.3,30.7,30.14,North,3,0.0,0.0,87,0.00,,,0.00,Weather View 32 v70,2013-04-01 12:40:00,
2013-04-01 06:50:00,34.2,30.7,30.14,North,3,0.0,0.0,87,0.00,,,0.00,Weather View 32 v70,2013-04-01 12:50:00,
2013-04-01 06:55:00,34.1,30.6,30.14,North,3,0.0,0.0,87,0.00,,,0.00,Weather View 32 v70,2013-04-01 12:55:00,
2013-04-01 07:00:00,34.0,30.6,30.14,North,3,0.0,0.0,87,0.00,,,0.00,Weather View 32 v70,2013-04-01 13:00:00,
2013-04-01 07:10:00,33.9,30.5,30.14,North,3,0.0,0.0,87,0.00,,,0.00,Weather View 32 v70,2013-04-01 13:10:00,
2013-04-01 07:15:00,33.9,30.5,30.14,North,3,0.0,0.0,87,0.00,,,0.00,Weather View 32 v70,2013-04-01 13:15:00,
2013-04-01 07:20:00,33.8,30.4,30.14,North,3,0.0,0.0,87,0.00,,,0.00,Weather View 32 v70,2013-04-01 13:20:00,
2013-04-01 07:30:00,33.9,30.6,30.14,North,3,0.0,0.0,87,0.00,,,0.00,Weather View 32 v70,2013-04-01 13:30:00,
2013-04-01 07:35:00,34.1,30.7,30.14,North,3,0.0,0.0,87,0.00,,,0.00,Weather View 32 v70,2013-04-01 13:35:00,
2013-04-01 07:40:00,34.2,30.8,30.14,North,3,0.0,0.0,87,0.00,,,0.00,Weather View 32 v70,2013-04-01 13:40:00,
2013-04-01 07:50:00,34.6,31.1,30.15,North,3,0.0,0.0,87,0.00,,,0.00,Weather View 32 v70,2013-04-01 13:50:00,
2013-04-01 07:55:00,34.7,31.3,30.14,North,3,0.0,0.0,87,0.00,,,0.00,Weather View 32 v70,2013-04-01 13:55:00,
2013-04-01 08:05:00,35.6,31.8,30.14,North,3,0.0,0.0,86,0.00,,,0.00,Weather View 32 v70,2013-04-01 14:05:00,
2013-04-01 08:15:00,36.5,32.2,30.14,North,3,0.0,0.0,84,0.00,,,0.00,Weather View 32 v70,2013-04-01 14:15:00,
2013-04-01 08:20:00,37.0,32.5,30.14,North,3,0.0,0.0,84,0.00,,,0.00,Weather View 32 v70,2013-04-01 14:20:00,
2013-04-01 08:30:00,37.7,32.7,30.14,North,3,0.0,0.0,82,0.00,,,0.00,Weather View 32 v70,2013-04-01 14:30:00,
2013-04-01 08:40:00,37.9,32.8,30.14,North,3,0.0,0.0,82,0.00,,,0.00,Weather View 32 v70,2013-04-01 14:40:00,
2013-04-01 08:50:00,38.3,33.0,30.13,North,3,0.0,0.0,81,0.00,,,0.00,Weather View 32 v70,2013-04-01 14:50:00,
2013-04-01 09:00:00,39.2,33.3,30.13,North,3,0.0,0.0,79,0.00,,,0.00,Weather View 32 v70,2013-04-01 15:00:00,
2013-04-01 09:05:00,39.4,33.3,30.13,North,3,0.0,0.0,79,0.00,,,0.00,Weather View 32 v70,2013-04-01 15:05:00,
2013-04-01 09:15:00,40.2,33.5,30.13,North,3,0.0,0.0,77,0.00,,,0.00,Weather View 32 v70,2013-04-01 15:15:00,
2013-04-01 09:20:00,40.5,33.6,30.13,North,3,0.0,0.0,76,0.00,,,0.00,Weather View 32 v70,2013-04-01 15:20:00,
2013-04-01 09:25:00,40.8,33.6,30.12,North,3,0.0,0.0,76,0.00,,,0.00,Weather View 32 v70,2013-04-01 15:25:00,
2013-04-01 09:35:00,41.2,33.7,30.12,North,3,0.0,0.0,75,0.00,,,0.00,Weather View 32 v70,2013-04-01 15:35:00,
2013-04-01 09:40:00,41.6,33.9,30.12,North,3,0.0,0.0,74,0.00,,,0.00,Weather View 32 v70,2013-04-01 15:40:00,
2013-04-01 09:50:00,42.2,34.1,30.12,North,3,0.0,0.0,73,0.00,,,0.00,Weather View 32 v70,2013-04-01 15:50:00,
2013-04-01 09:55:00,42.2,34.0,30.12,North,3,0.0,0.0,73,0.00,,,0.00,Weather View 32 v70,2013-04-01 15:55:00,
2013-04-01 10:00:00,41.9,33.8,30.12,North,3,0.0,0.0,73,0.00,,,0.00,Weather View 32 v70,2013-04-01 16:00:00,
2013-04-01 10:10:00,41.8,33.6,30.11,North,3,0.0,0.0,73,0.00,,,0.00,Weather View 32 v70,2013-04-01 16:10:00,
2013-04-01 10:15:00,42.2,33.6,30.11,North,3,0.0,0.0,72,0.00,,,0.00,Weather View 32 v70,2013-04-01 16:15:00,
2013-04-01 10:20:00,42.7,34.0,30.11,North,3,0.0,0.0,71,0.00,,,0.00,Weather View 32 v70,2013-04-01 16:20:00,
2013-04-01 10:30:00,43.1,33.9,30.10,North,3,0.0,0.0,70,0.00,,,0.00,Weather View 32 v70,2013-04-01 16:30:00,
2013-04-01 10:35:00,43.3,34.1,30.10,North,3,0.0,0.0,70,0.00,,,0.00,Weather View 32 v70,2013-04-01 16:35:00,
2013-04-01 10:40:00,43.4,33.8,30.10,North,3,0.0,0.0,69,0.00,,,0.00,Weather View 32 v70,2013-04-01 16:40:00,
2013-04-01 10:50:00,43.5,33.8,30.10,North,3,0.0,0.0,69,0.00,,,0.00,Weather View 32 v70,2013-04-01 16:50:00,
2013-04-01 10:55:00,43.5,33.8,30.09,North,3,0.0,0.0,69,0.00,,,0.00,Weather View 32 v70,2013-04-01 16:55:00,
2013-04-01 11:00:00,43.9,33.7,30.09,North,3,0.0,0.0,67,0.00,,,0.00,Weather View 32 v70,2013-04-01 17:00:00,
2013-04-01 11:10:00,45.3,34.6,30.08,North,3,0.0,0.0,66,0.00,,,0.00,Weather View 32 v70,2013-04-01 17:10:00,
2013-04-01 11:15:00,45.4,34.5,30.09,North,3,0.0,0.0,66,0.00,,,0.00,Weather View 32 v70,2013-04-01 17:15:00,
2013-04-01 11:20:00,45.5,34.6,30.08,North,3,0.0,0.0,65,0.00,,,0.00,Weather View 32 v70,2013-04-01 17:20:00,
2013-04-01 11:30:00,45.1,34.2,30.09,North,3,0.0,0.0,66,0.00,,,0.00,Weather View 32 v70,2013-04-01 17:30:00,
2013-04-01 11:40:00,45.4,34.4,30.09,North,3,0.0,0.0,65,0.00,,,0.00,Weather View 32 v70,2013-04-01 17:40:00,
2013-04-01 11:45:00,45.1,34.4,30.09,North,3,0.0,0.0,66,0.00,,,0.00,Weather View 32 v70,2013-04-01 17:45:00,
2013-04-01 11:50:00,44.9,34.6,30.09,North,3,0.0,0.0,67,0.00,,,0.00,Weather View 32 v70,2013-04-01 17:50:00,
2013-04-01 12:00:00,43.9,33.8,30.09,North,3,0.0,0.0,67,0.00,,,0.00,Weather View 32 v70,2013-04-01 18:00:00,
2013-04-01 12:10:00,44.3,33.8,30.08,North,3,0.0,0.0,67,0.00,,,0.00,Weather View 32 v70,2013-04-01 18:10:00,
2013-04-01 12:15:00,44.3,33.6,30.08,North,3,0.0,0.0,66,0.00,,,0.00,Weather View 32 v70,2013-04-01 18:15:00,
2013-04-01 12:20:00,44.6,33.9,30.08,North,3,0.0,0.0,66,0.00,,,0.00,Weather View 32 v70,2013-04-01 18:20:00,
2013-04-01 12:30:00,45.8,34.4,30.08,North,3,0.0,0.0,64,0.00,,,0.00,Weather View 32 v70,2013-04-01 18:30:00,
2013-04-01 12:40:00,45.7,34.0,30.07,North,3,0.0,0.0,64,0.00,,,0.00,Weather View 32 v70,2013-04-01 18:40:00,
2013-04-01 12:50:00,46.1,34.6,30.07,North,3,0.0,0.0,64,0.00,,,0.00,Weather View 32 v70,2013-04-01 18:50:00,
2013-04-01 13:00:00,47.7,35.0,30.07,North,3,0.0,0.0,61,0.00,,,0.00,Weather View 32 v70,2013-04-01 19:00:00,
2013-04-01 13:10:00,48.3,34.8,30.06,North,3,0.0,0.0,59,0.00,,,0.00,Weather View 32 v70,2013-04-01 19:10:00,
2013-04-01 13:15:00,48.5,34.8,30.06,North,3,0.0,0.0,59,0.00,,,0.00,Weather View 32 v70,2013-04-01 19:15:00,
2013-04-01 13:20:00,47.9,35.0,30.06,North,3,0.0,0.0,61,0.00,,,0.00,Weather View 32 v70,2013-04-01 19:20:00,
2013-04-01 13:30:00,48.3,35.0,30.06,North,3,0.0,0.0,60,0.00,,,0.00,Weather View 32 v70,2013-04-01 19:30:00,
2013-04-01 13:40:00,48.0,35.3,30.06,North,3,0.0,0.0,61,0.00,,,0.00,Weather View 32 v70,2013-04-01 19:40:00,
2013-04-01 13:45:00,47.3,35.4,30.06,North,3,0.0,0.0,63,0.00,,,0.00,Weather View 32 v70,2013-04-01 19:45:00,
2013-04-01 13:50:00,47.3,35.6,30.06,North,3,0.0,0.0,64,0.00,,,0.00,Weather View 32 v70,2013-04-01 19:50:00,
2013-04-01 13:55:00,47.5,35.7,30.05,North,3,0.0,0.0,63,0.00,,,0.00,Weather View 32 v70,2013-04-01 19:55:00,
2013-04-01 14:05:00,48.8,36.3,30.04,North,3,0.0,0.0,62,0.00,,,0.00,Weather View 32 v70,2013-04-01 20:05:00,
2013-04-01 14:15:00,49.2,36.7,30.03,North,3,0.0,0.0,62,0.00,,,0.00,Weather View 32 v70,2013-04-01 20:15:00,
2013-04-01 14:25:00,50.8,37.0,30.03,North,3,0.0,0.0,59,0.00,,,0.00,Weather View 32 v70,2013-04-01 20:25:00,
2013-04-01 14:30:00,51.3,37.2,30.02,North,3,0.0,0.0,58,0.00,,,0.00,Weather View 32 v70,2013-04-01 20:30:00,
2013-04-01 14:40:00,51.7,37.1,30.01,North,3,0.0,0.0,57,0.00,,,0.00,Weather View 32 v70,2013-04-01 20:40:00,
2013-04-01 14:45:00,51.7,37.2,30.03,North,3,0.0,0.0,58,0.00,,,0.00,Weather View 32 v70,2013-04-01 20:45:00,
2013-04-01 14:55:00,51.6,37.1,30.03,North,3,0.0,0.0,58,0.00,,,0.00,Weather View 32 v70,2013-04-01 20:55:00,
2013-04-01 15:00:00,51.6,37.1,30.03,North,3,0.0,0.0,58,0.00,,,0.00,Weather View 32 v70,2013-04-01 21:00:00,
2013-04-01 15:05:00,51.3,36.9,30.03,North,3,0.0,0.0,58,0.00,,,0.00,Weather View 32 v70,2013-04-01 21:05:00,
2013-04-01 15:15:00,51.2,37.0,30.03,North,3,0.0,0.0,58,0.00,,,0.00,Weather View 32 v70,2013-04-01 21:15:00,
2013-04-01 15:20:00,51.2,37.0,30.02,North,3,0.0,0.0,58,0.00,,,0.00,Weather View 32 v70,2013-04-01 21:20:00,
2013-04-01 15:25:00,51.3,36.9,30.02,North,3,0.0,0.0,58,0.00,,,0.00,Weather View 32 v70,2013-04-01 21:25:00,
2013-04-01 15:35:00,51.2,37.0,30.02,North,3,0.0,0.0,58,0.00,,,0.00,Weather View 32 v70,2013-04-01 21:35:00,
2013-04-01 15:40:00,51.0,36.8,30.02,North,3,0.0,0.0,58,0.00,,,0.00,Weather View 32 v70,2013-04-01 21:40:00,
2013-04-01 15:45:00,51.0,36.9,30.03,North,3,0.0,0.0,58,0.00,,,0.00,Weather View 32 v70,2013-04-01 21:45:00,
2013-04-01 15:55:00,50.0,36.6,30.03,North,3,0.0,0.0,60,0.00,,,0.00,Weather View 32 v70,2013-04-01 21:55:00,
2013-04-01 16:00:00,49.3,36.4,30.02,North,3,0.0,0.0,61,0.00,,,0.00,Weather View 32 v70,2013-04-01 22:00:00,
2013-04-01 16:05:00,48.8,36.3,30.02,North,3,0.0,0.0,62,0.00,,,0.00,Weather View 32 v70,2013-04-01 22:05:00,
2013-04-01 16:10:00,48.8,36.3,30.02,North,3,0.0,0.0,62,0.00,,,0.00,Weather View 32 v70,2013-04-01 22:10:00,
2013-04-01 16:20:00,49.4,36.4,30.01,North,3,0.0,0.0,61,0.00,,,0.00,Weather View 32 v70,2013-04-01 22:20:00,
2013-04-01 16:25:00,49.7,36.7,30.01,North,3,0.0,0.0,61,0.00,,,0.00,Weather View 32 v70,2013-04-01 22:25:00,
2013-04-01 16:30:00,50.0,36.6,30.00,North,3,0.0,0.0,60,0.00,,,0.00,Weather View 32 v70,2013-04-01 22:30:00,
2013-04-01 16:35:00,50.1,36.7,30.01,North,3,0.0,0.0,60,0.00,,,0.00,Weather View 32 v70,2013-04-01 22:35:00,
2013-04-01 16:45:00,50.2,36.7,30.01,North,3,0.0,0.0,60,0.00,,,0.00,Weather View 32 v70,2013-04-01 22:45:00,
2013-04-01 16:50:00,50.6,36.9,30.00,North,3,0.0,0.0,59,0.00,,,0.00,Weather View 32 v70,2013-04-01 22:50:00,
2013-04-01 17:00:00,51.1,36.9,30.01,North,3,0.0,0.0,58,0.00,,,0.00,Weather View 32 v70,2013-04-01 23:00:00,
2013-04-01 17:05:00,51.2,36.9,30.00,North,3,0.0,0.0,58,0.00,,,0.00,Weather View 32 v70,2013-04-01 23:05:00,
2013-04-01 17:10:00,50.9,37.0,30.00,North,3,0.0,0.0,59,0.00,,,0.00,Weather View 32 v70,2013-04-01 23:10:00,
2013-04-01 17:20:00,51.1,37.0,30.00,North,3,0.0,0.0,58,0.00,,,0.00,Weather View 32 v70,2013-04-01 23:20:00,
2013-04-01 17:25:00,51.1,36.9,30.00,North,3,0.0,0.0,58,0.00,,,0.00,Weather View 32 v70,2013-04-01 23:25:00,
2013-04-01 17:30:00,51.1,36.9,30.00,North,3,0.0,0.0,58,0.00,,,0.00,Weather View 32 v70,2013-04-01 23:30:00,
2013-04-01 17:35:00,50.9,36.8,30.01,North,3,0.0,0.0,58,0.00,,,0.00,Weather View 32 v70,2013-04-01 23:35:00,
2013-04-01 17:45:00,50.1,36.7,30.02,North,3,0.0,0.0,60,0.00,,,0.00,Weather View 32 v70,2013-04-01 23:45:00,
2013-04-01 17:50:00,49.5,36.5,30.02,North,3,0.0,0.0,61,0.00,,,0.00,Weather View 32 v70,2013-04-01 23:50:00,
2013-04-01 17:55:00,49.1,36.5,30.03,North,3,0.0,0.0,62,0.00,,,0.00,Weather View 32 v70,2013-04-01 23:55:00,
2013-04-01 18:00:00,48.8,36.5,30.03,North,3,0.0,0.0,63,0.00,,,0.00,Weather View 32 v70,2013-04-02 00:00:00,
2013-04-01 18:07:00,48.6,36.5,30.02,North,3,0.0,0.0,63,0.00,,,0.00,Weather View 32 v70,2013-04-02 00:07:00,
2013-04-01 18:15:00,48.4,36.5,30.01,North,3,0.0,0.0,63,0.00,,,0.00,Weather View 32 v70,2013-04-02 00:15:00,
2013-04-01 18:25:00,48.2,36.7,30.02,North,3,0.0,0.0,64,0.00,,,0.00,Weather View 32 v70,2013-04-02 00:25:00,
2013-04-01 18:30:00,48.0,36.6,30.03,North,3,0.0,0.0,65,0.00,,,0.00,Weather View 32 v70,2013-04-02 00:30:00,
2013-04-01 18:35:00,47.8,36.6,30.03,North,3,0.0,0.0,65,0.00,,,0.00,Weather View 32 v70,2013-04-02 00:35:00,
2013-04-01 18:40:00,47.7,36.6,30.03,North,3,0.0,0.0,65,0.00,,,0.00,Weather View 32 v70,2013-04-02 00:40:00,
2013-04-01 18:50:00,47.2,36.6,30.03,North,3,0.0,0.0,67,0.00,,,0.00,Weather View 32 v70,2013-04-02 00:50:00,
2013-04-01 18:55:00,47.0,36.6,30.03,North,3,0.0,1.0,67,0.00,,,0.00,Weather View 32 v70,2013-04-02 00:55:00,
2013-04-01 19:00:00,46.9,36.5,30.03,North,3,0.0,1.0,67,0.00,,,0.00,Weather View 32 v70,2013-04-02 01:00:00,
2013-04-01 19:08:00,46.8,36.4,30.03,North,3,0.0,1.0,67,0.00,,,0.00,Weather View 32 v70,2013-04-02 01:08:00,
2013-04-01 19:15:00,46.4,36.1,30.03,North,3,0.0,2.0,67,0.00,,,0.00,Weather View 32 v70,2013-04-02 01:15:00,
2013-04-01 19:25:00,46.0,36.0,30.05,North,3,0.0,2.0,68,0.00,,,0.00,Weather View 32 v70,2013-04-02 01:25:00,
2013-04-01 19:30:00,46.0,36.1,30.05,North,3,0.0,2.0,68,0.00,,,0.00,Weather View 32 v70,2013-04-02 01:30:00,
2013-04-01 19:35:00,45.9,36.0,30.05,North,3,0.0,2.0,68,0.00,,,0.00,Weather View 32 v70,2013-04-02 01:35:00,
2013-04-01 19:45:00,45.4,35.8,30.05,South,169,0.0,2.0,69,0.00,,,0.00,Weather View 32 v70,2013-04-02 01:45:00,
2013-04-01 19:50:00,45.1,35.7,30.06,South,169,0.0,2.0,69,0.00,,,0.00,Weather View 32 v70,2013-04-02 01:50:00,
2013-04-01 19:55:00,44.8,35.7,30.06,South,169,0.0,2.0,70,0.00,,,0.00,Weather View 32 v70,2013-04-02 01:55:00,
2013-04-01 20:00:00,44.5,35.6,30.06,South,169,0.0,2.0,71,0.00,,,0.00,Weather View 32 v70,2013-04-02 02:00:00,
2013-04-01 20:08:00,44.3,35.9,30.06,South,169,0.0,2.0,72,0.00,,,0.00,Weather View 32 v70,2013-04-02 02:08:00,
2013-04-01 20:15:00,44.0,36.0,30.06,South,169,0.0,1.0,73,0.00,,,0.00,Weather View 32 v70,2013-04-02 02:15:00,
2013-04-01 20:20:00,43.8,36.1,30.07,South,169,0.0,1.0,74,0.00,,,0.00,Weather View 32 v70,2013-04-02 02:20:00,
2013-04-01 20:25:00,43.6,36.0,30.07,South,169,0.0,1.0,75,0.00,,,0.00,Weather View 32 v70,2013-04-02 02:25:00,
2013-04-01 20:30:00,43.5,36.0,30.08,South,169,0.0,1.0,75,0.00,,,0.00,Weather View 32 v70,2013-04-02 02:30:00,
2013-04-01 20:40:00,43.4,36.0,30.08,South,169,0.0,1.0,75,0.00,,,0.00,Weather View 32 v70,2013-04-02 02:40:00,
2013-04-01 20:45:00,43.4,36.0,30.08,South,169,0.0,0.0,75,0.00,,,0.00,Weather View 32 v70,2013-04-02 02:45:00,
2013-04-01 20:50:00,43.2,35.8,30.08,South,169,0.0,0.0,75,0.00,,,0.00,Weather View 32 v70,2013-04-02 02:50:00,
2013-04-01 21:00:00,43.0,35.9,30.08,South,169,0.0,0.0,76,0.00,,,0.00,Weather View 32 v70,2013-04-02 03:00:00,
2013-04-01 21:09:00,42.9,35.9,30.08,South,169,0.0,0.0,76,0.00,,,0.00,Weather View 32 v70,2013-04-02 03:09:00,
2013-04-01 21:15:00,42.9,35.9,30.08,South,169,0.0,0.0,76,0.00,,,0.00,Weather View 32 v70,2013-04-02 03:15:00,
2013-04-01 21:25:00,42.8,35.8,30.08,South,169,0.0,0.0,76,0.00,,,0.00,Weather View 32 v70,2013-04-02 03:25:00,
2013-04-01 21:30:00,42.7,35.6,30.08,South,169,0.0,0.0,76,0.00,,,0.00,Weather View 32 v70,2013-04-02 03:30:00,
2013-04-01 21:35:00,42.5,35.3,30.08,South,169,0.0,0.0,76,0.00,,,0.00,Weather View 32 v70,2013-04-02 03:35:00,
2013-04-01 21:45:00,42.5,35.4,30.08,South,169,0.0,0.0,76,0.00,,,0.00,Weather View 32 v70,2013-04-02 03:45:00,
2013-04-01 21:50:00,42.4,35.7,30.09,South,169,0.0,0.0,77,0.00,,,0.00,Weather View 32 v70,2013-04-02 03:50:00,
2013-04-01 21:55:00,42.2,35.9,30.09,South,169,0.0,0.0,78,0.00,,,0.00,Weather View 32 v70,2013-04-02 03:55:00,
2013-04-01 22:05:00,41.6,36.1,30.09,South,169,0.0,1.0,81,0.00,,,0.00,Weather View 32 v70,2013-04-02 04:05:00,
2013-04-01 22:10:00,41.2,36.0,30.09,South,169,0.0,1.0,82,0.00,,,0.00,Weather View 32 v70,2013-04-02 04:10:00,
2013-04-01 22:15:00,41.0,36.0,30.09,South,169,0.0,1.0,82,0.00,,,0.00,Weather View 32 v70,2013-04-02 04:15:00,
2013-04-01 22:25:00,40.4,35.9,30.10,South,169,0.0,1.0,84,0.00,,,0.00,Weather View 32 v70,2013-04-02 04:25:00,
2013-04-01 22:30:00,40.3,35.9,30.10,South,169,0.0,1.0,84,0.00,,,0.00,Weather View 32 v70,2013-04-02 04:30:00,
2013-04-01 22:35:00,40.3,35.9,30.10,South,169,0.0,1.0,84,0.00,,,0.00,Weather View 32 v70,2013-04-02 04:35:00,
2013-04-01 22:40:00,40.2,35.9,30.10,South,169,0.0,1.0,85,0.00,,,0.00,Weather View 32 v70,2013-04-02 04:40:00,
2013-04-01 22:45:00,40.2,36.0,30.10,South,169,0.0,1.0,85,0.00,,,0.00,Weather View 32 v70,2013-04-02 04:45:00,
2013-04-01 22:50:00,40.2,36.0,30.09,South,169,0.0,1.0,85,0.00,,,0.00,Weather View 32 v70,2013-04-02 04:50:00,
2013-04-01 22:55:00,40.2,36.0,30.09,South,169,0.0,1.0,85,0.00,,,0.00,Weather View 32 v70,2013-04-02 04:55:00,
2013-04-01 23:05:00,40.0,35.9,30.10,South,169,0.0,0.0,85,0.00,,,0.00,Weather View 32 v70,2013-04-02 05:05:00,
2013-04-01 23:10:00,40.1,36.3,30.09,South,169,0.0,0.0,86,0.00,,,0.00,Weather View 32 v70,2013-04-02 05:10:00,
2013-04-01 23:15:00,40.0,36.5,30.10,South,169,0.0,0.0,87,0.00,,,0.00,Weather View 32 v70,2013-04-02 05:15:00,
2013-04-01 23:25:00,39.5,36.6,30.09,South,169,0.0,0.0,89,0.00,,,0.00,Weather View 32 v70,2013-04-02 05:25:00,
2013-04-01 23:35:00,39.2,36.7,30.09,South,169,0.0,0.0,91,0.00,,,0.00,Weather View 32 v70,2013-04-02 05:35:00,
2013-04-01 23:45:00,38.6,36.3,30.09,South,169,0.0,0.0,91,0.00,,,0.00,Weather View 32 v70,2013-04-02 05:45:00,
2013-04-01 23:50:00,38.4,36.1,30.10,South,169,0.0,0.0,91,0.00,,,0.00,Weather View 32 v70,2013-04-02 05:50:00,
2013-04-01 23:55:00,38.3,36.1,30.09,South,169,0.0,0.0,92,0.00,,,0.00,Weather View 32 v70,2013-04-02 05:55:00,